Total_Precipitation_Accumulation
0.23 0.34 0.36 0.33 0.30 0.26 0.22 0.21 0.37 0.46 0.64 0.76 0.84 0.92 1.12 1.25 1.20 1.08 0.93 0.86 0.89 0.90 0.97 1.02 1.16 1.31 1.25 1.29 1.37 1.54 1.74 1.85 2.02 2.02 1.98 1.97 2.00 2.02 2.03 2.07 2.00 2.08 2.15 2.16
0.27 0.29 0.33 0.37 0.35 0.30 0.25 0.22 0.28 0.42 0.67 0.88 0.90 0.91 1.06 1.08 0.95 0.81 0.72 0.61 0.58 0.77 0.87 0.84 0.86 0.98 0.96 1.02 1.18 1.36 1.46 1.59 1.85 1.99 2.02 2.01 2.07 2.21 2.25 2.19 2.14 2.15 2.09 2.12
0.39 0.34 0.35 0.46 0.45 0.38 0.30 0.29 0.31 0.47 0.70 0.97 0.84 0.75 0.86 0.92 0.87 0.80 0.79 0.61 0.57 0.65 0.81 0.83 0.83 0.84 0.96 1.10 1.23 1.34 1.49 1.64 1.86 2.00 2.10 2.17 2.18 2.30 2.24 2.23 2.28 2.19 2.10 2.09
0.46 0.57 0.68 0.51 0.41 0.41 0.41 0.43 0.39 0.55 0.60 0.76 0.75 0.77 0.90 0.91 0.90 0.75 0.74 0.69 0.67 0.65 0.66 0.73 0.81 0.86 1.00 1.28 1.53 1.59 1.74 1.93 2.05 2.20 2.17 2.15 2.16 2.21 2.31 2.41 2.45 2.42 2.33 2.24
0.62 0.76 0.67 0.57 0.42 0.48 0.54 0.73 0.75 0.85 0.83 0.79 0.75 0.88 0.98 0.84 0.78 0.78 0.68 0.65 0.72 0.76 0.78 0.87 0.93 0.96 1.12 1.32 1.64 1.84 1.89 2.00 2.16 2.27 2.30 2.31 2.31 2.30 2.43 2.55 2.52 2.46 2.39 2.41
0.76 0.92 0.90 0.76 0.56 0.57 0.75 1.31 1.13 1.09 1.10 0.97 0.87 1.08 1.20 1.09 1.00 0.93 0.83 0.75 0.76 0.80 0.93 1.14 1.21 1.24 1.36 1.47 1.60 1.79 1.88 2.01 2.18 2.41 2.46 2.47 2.62 2.72 2.70 2.67 2.55 2.56 2.56 2.52
0.90 0.98 1.09 0.90 0.77 0.81 1.37 1.75 1.37 1.23 1.20 1.15 1.24 1.28 1.22 1.08 1.10 1.02 0.88 0.87 0.85 0.88 1.06 1.32 1.46 1.51 1.62 1.75 1.85 1.85 1.91 2.06 2.25 2.43 2.53 2.59 2.78 2.87 2.87 2.82 2.82 2.77 2.68 2.70
1.11 1.33 1.54 1.05 0.99 1.42 1.73 1.46 1.47 1.48 1.45 1.34 1.30 1.24 1.18 1.10 1.13 1.06 0.95 0.99 1.02 1.07 1.25 1.50 1.70 1.67 1.76 1.85 1.86 1.89 1.87 2.01 2.16 2.32 2.33 2.40 2.70 2.80 2.92 2.97 2.92 2.83 2.80 2.64
1.48 1.63 1.48 1.23 1.30 1.45 1.57 1.73 1.65 1.58 1.65 1.44 1.40 1.29 1.19 1.15 1.12 1.07 1.00 1.02 1.09 1.15 1.36 1.63 1.83 1.86 1.94 1.87 1.95 1.99 2.01 2.12 2.25 2.33 2.38 2.48 2.59 2.64 2.74 2.81 2.77 2.65 2.68 2.62
1.73 1.75 1.63 1.52 1.38 1.21 1.33 1.45 1.44 1.46 1.50 1.47 1.40 1.29 1.19 1.11 1.04 1.02 1.04 1.00 1.08 1.20 1.30 1.42 1.62 1.84 1.97 2.01 2.05 2.06 2.11 2.17 2.27 2.37 2.35 2.42 2.55 2.66 2.76 2.83 2.92 2.83 2.69 2.56
1.98 1.85 1.71 1.70 1.55 1.41 1.48 1.55 1.47 1.40 1.38 1.40 1.37 1.28 1.14 1.11 1.09 1.06 1.06 1.02 1.08 1.20 1.27 1.34 1.41 1.54 1.61 1.74 1.87 1.96 2.07 2.16 2.18 2.21 2.28 2.39 2.46 2.57 2.56 2.63 2.67 2.64 2.55 2.51
2.33 2.00 1.84 1.82 1.62 1.45 1.52 1.51 1.59 1.69 1.65 1.42 1.31 1.38 1.31 1.18 1.10 1.11 1.13 1.13 1.15 1.22 1.25 1.27 1.36 1.55 1.62 1.70 1.84 2.01 2.14 2.17 2.14 2.09 2.14 2.19 2.26 2.28 2.31 2.20 2.19 2.13 2.11 2.11
1.99 1.75 1.66 1.63 1.56 1.45 1.45 1.40 1.40 1.54 1.60 1.47 1.41 1.39 1.45 1.38 1.30 1.23 1.17 1.12 1.14 1.21 1.27 1.35 1.40 1.56 1.63 1.64 1.74 1.90 2.03 2.08 2.09 2.08 2.10 2.10 2.18 2.17 2.22 2.15 2.03 1.90 1.82 1.83
1.75 1.73 1.73 1.63 1.49 1.46 1.48 1.39 1.30 1.33 1.42 1.44 1.46 1.48 1.59 1.55 1.46 1.39 1.34 1.25 1.20 1.23 1.23 1.30 1.42 1.44 1.47 1.49 1.54 1.65 1.74 1.84 1.99 2.08 2.12 2.14 2.24 2.33 2.41 2.43 2.31 2.07 1.90 1.83
1.81 1.71 1.62 1.46 1.42 1.46 1.47 1.41 1.33 1.33 1.47 1.63 1.57 1.52 1.58 1.51 1.45 1.38 1.31 1.26 1.22 1.21 1.25 1.28 1.34 1.37 1.42 1.54 1.63 1.67 1.67 1.68 1.70 1.77 1.89 2.00 2.02 2.09 2.20 2.31 2.36 2.26 2.08 1.98
1.93 1.79 1.59 1.42 1.47 1.62 1.66 1.60 1.51 1.41 1.38 1.56 1.61 1.51 1.49 1.42 1.31 1.31 1.33 1.33 1.37 1.38 1.39 1.40 1.45 1.42 1.49 1.63 1.75 1.77 1.72 1.75 1.68 1.61 1.60 1.68 1.76 1.86 1.98 2.15 2.24 2.21 2.14 2.02
1.98 1.91 1.74 1.56 1.49 1.53 1.59 1.60 1.54 1.48 1.39 1.42 1.48 1.51 1.50 1.44 1.32 1.27 1.27 1.30 1.39 1.42 1.45 1.53 1.57 1.58 1.68 1.73 1.76 1.76 1.70 1.70 1.71 1.65 1.65 1.70 1.76 1.84 1.88 1.95 2.00 1.95 1.86 1.79
1.81 1.72 1.64 1.54 1.47 1.46 1.49 1.48 1.46 1.44 1.42 1.41 1.41 1.43 1.46 1.52 1.49 1.43 1.34 1.36 1.39 1.36 1.36 1.41 1.49 1.52 1.67 1.81 1.85 1.81 1.71 1.64 1.58 1.58 1.66 1.72 1.78 1.87 1.92 1.92 1.87 1.78 1.69 1.59
1.70 1.64 1.56 1.46 1.44 1.43 1.43 1.41 1.43 1.40 1.36 1.35 1.44 1.51 1.50 1.53 1.61 1.56 1.49 1.53 1.60 1.60 1.46 1.37 1.45 1.42 1.50 1.74 1.92 1.93 1.79 1.70 1.66 1.67 1.70 1.71 1.72 1.78 1.83 1.81 1.77 1.71 1.62 1.55
1.71 1.68 1.67 1.63 1.53 1.53 1.51 1.42 1.41 1.41 1.38 1.41 1.48 1.50 1.57 1.55 1.61 1.68 1.68 1.62 1.61 1.69 1.67 1.55 1.42 1.36 1.37 1.60 1.93 1.88 1.84 1.76 1.67 1.64 1.65 1.67 1.73 1.82 1.81 1.73 1.65 1.64 1.66 1.67
1.87 1.89 1.84 1.77 1.67 1.58 1.48 1.37 1.41 1.46 1.43 1.48 1.58 1.58 1.61 1.56 1.53 1.67 1.82 1.65 1.52 1.62 1.66 1.61 1.41 1.32 1.34 1.55 1.86 1.86 1.84 1.83 1.72 1.62 1.62 1.66 1.69 1.77 1.78 1.75 1.68 1.59 1.60 1.63
2.19 2.17 1.99 1.78 1.71 1.59 1.47 1.41 1.41 1.43 1.44 1.53 1.53 1.57 1.73 1.73 1.67 1.66 1.65 1.62 1.54 1.60 1.56 1.49 1.40 1.34 1.32 1.41 1.54 1.66 1.65 1.62 1.57 1.49 1.45 1.49 1.58 1.72 1.75 1.78 1.79 1.71 1.69 1.70
2.28 2.15 2.00 1.81 1.74 1.58 1.39 1.36 1.36 1.42 1.51 1.58 1.65 1.74 1.96 1.97 1.85 1.89 1.70 1.39 1.33 1.46 1.40 1.32 1.36 1.32 1.28 1.25 1.40 1.51 1.47 1.47 1.44 1.38 1.34 1.39 1.48 1.60 1.72 1.70 1.71 1.72 1.67 1.60
2.09 1.98 1.88 1.72 1.74 1.70 1.61 1.51 1.47 1.52 1.57 1.56 1.61 1.75 2.00 2.14 1.91 1.60 1.48 1.41 1.35 1.33 1.27 1.29 1.30 1.28 1.27 1.22 1.36 1.48 1.46 1.44 1.44 1.42 1.37 1.42 1.48 1.55 1.61 1.59 1.57 1.56 1.54 1.53
2.08 1.93 1.80 1.78 1.91 1.92 1.79 1.69 1.67 1.73 1.74 1.69 1.64 1.71 1.87 2.12 2.09 1.63 1.32 1.20 1.26 1.26 1.19 1.29 1.34 1.33 1.19 1.14 1.23 1.40 1.50 1.53 1.54 1.50 1.45 1.54 1.60 1.64 1.64 1.63 1.64 1.61 1.55 1.49
1.97 1.91 1.87 1.87 1.86 1.90 1.90 1.90 1.97 2.02 2.07 2.13 2.07 1.93 1.99 2.10 1.97 1.68 1.36 1.16 1.17 1.26 1.20 1.28 1.36 1.37 1.25 1.23 1.27 1.37 1.46 1.58 1.59 1.56 1.53 1.55 1.58 1.66 1.70 1.67 1.65 1.62 1.52 1.44
1.87 1.78 1.77 1.78 1.78 1.85 1.96 2.12 2.23 2.24 2.29 2.43 2.43 2.14 2.06 2.13 2.08 1.85 1.57 1.42 1.41 1.43 1.42 1.39 1.31 1.28 1.33 1.42 1.42 1.36 1.40 1.52 1.55 1.56 1.63 1.60 1.57 1.57 1.59 1.55 1.50 1.45 1.34 1.24